This demonstration page uses our WeatherBlox Daily Observations layout. Learn more.

Left ArrowRight Arrow

30.21309, -93.2044

Hourly Observations for May 11, 2022

Temp ( °F °C ) Dew Point ( °F °C ) Humidity (%) Winds ( mph kmh ) Pressure ( in mb ) Visibility ( mi km ) Precip ( " mm )
12:15 am 00:15 Clear 74 23.2 70 21 87 87 SSE 7 11 30.10 1019 10 16 0.00 0.00
12:35 am 00:35 Clear 72 22.4 69 20.7 90 90 S 5 7 30.11 1020 10 16 0.00 0.00
12:55 am 00:55 Clear 73 22.6 69 20.7 89 89 S 5 7 30.11 1020 10 16 0.00 0.00
1:15 am 01:15 Clear 71 21.9 68 20.1 90 90 S 5 7 30.11 1020 10 16 0.00 0.00
1:35 am 01:35 Clear 71 21.4 68 20.2 93 93 SSE 5 7 30.10 1019 10 16 0.00 0.00
1:55 am 01:55 Clear 72 22 69 20.4 91 91 SSW 3 6 30.11 1020 10 16 0.00 0.00
2:15 am 02:15 Clear 70 21.3 67 19.7 91 91 SSE 5 7 30.10 1019 10 16 0.00 0.00
2:35 am 02:35 Clear 70 21.3 68 20.1 93 93 SE 3 6 30.10 1019 10 16 0.00 0.00
2:55 am 02:55 Clear 71 21.5 69 20.5 94 94 Calm 30.10 1019 10 16 0.00 0.00
3:15 am 03:15 Clear 73 22.6 69 20.7 89 89 WSW 5 7 30.12 1020 10 16 0.00 0.00
3:35 am 03:35 Clear 74 23.4 70 20.9 86 86 WSW 5 7 30.12 1020 10 16 0.00 0.00
3:55 am 03:55 Clear 71 21.9 68 20.1 90 90 Calm 30.12 1020 10 16 0.00 0.00
4:15 am 04:15 Clear 71 21.6 69 20.3 92 92 Calm 30.12 1020 10 16 0.00 0.00
4:35 am 04:35 Clear with Mist and Fog 69 20.5 67 19.5 94 94 E 5 7 30.12 1020 7 11 0.00 0.00
4:55 am 04:55 Clear with Mist and Fog 68 20.2 67 19.4 95 95 Calm 30.13 1020 5 8 0.00 0.00
5:15 am 05:15 Clear with Mist and Fog 69 20.6 68 19.8 95 95 Calm 30.13 1020 5 8 0.00 0.00
5:35 am 05:35 Clear with Mist and Fog 69 20.8 68 19.9 95 95 Calm 30.13 1020 5 8 0.00 0.00
6:00 am 06:00 Mostly Clear 70 21 66 19 88 88 Calm 30.13 1020 10 16 0.00 0.00
6:55 am 06:55 Partly Cloudy with Mist and Fog 68 20 66 19 94 94 Calm 30.15 1021 6 10 0.00 0.00
7:45 am 07:45 Mostly Sunny 73 23 70 21 89 89 Calm 30.16 1021 7 11 0.00 0.00
8:47 am 08:47 Mostly Sunny 79 26 72 22 79 79 Calm 30.16 1021 10 16 0.00 0.00
9:53 am 09:53 Mostly Sunny 81 27 70 21 70 70 ESE 12 19 30.16 1021 10 16 0.00 0.00
10:45 am 10:45 Mostly Sunny 82 28 68 20 62 62 ESE 12 19 30.15 1021 10 16 0.00 0.00
11:45 am 11:45 Mostly Sunny 84 29 68 20 58 58 ESE 14 22 30.16 1021 10 16 0.00 0.00
12:45 pm 12:45 Mostly Sunny 88 31 64 18 46 46 ESE 12 19 30.15 1021 10 16 0.00 0.00
1:45 pm 13:45 Mostly Sunny 90 32 66 19 46 46 SE 9 15 30.13 1020 10 16 0.00 0.00
2:55 pm 14:55 Partly Cloudy 88 31 68 20 52 52 SE 9 15 30.11 1020 10 16 0.00 0.00
3:48 pm 15:48 Partly Cloudy 90 32 66 19 46 46 SE 10 17 30.10 1019 10 16 0.00 0.00
4:47 pm 16:47 Mostly Sunny 90 32 64 18 43 43 SE 10 17 30.08 1019 10 16 0.00 0.00
5:50 pm 17:50 Mostly Sunny 88 31 66 19 49 49 S 14 22 30.07 1018 10 16 0.00 0.00
6:55 pm 18:55 Mostly Sunny 82 28 68 20 62 62 SSW 13 20 30.08 1019 10 16 0.00 0.00
7:55 pm 19:55 Mostly Sunny 79 26 66 19 65 65 SSW 12 19 30.08 1019 10 16 0.00 0.00
8:45 pm 20:45 Mostly Clear 79 26 66 19 65 65 SW 8 13 30.09 1019 10 16 0.00 0.00
9:55 pm 21:55 Mostly Clear 75 24 66 19 74 74 Calm 30.10 1019 10 16 0.00 0.00
10:15 pm 22:15 Clear 76 24.3 66 18.9 72 72 SSW 6 9 30.10 1019 10 16 0.00 0.00
10:35 pm 22:35 Clear 75 24 66 19 74 74 SW 5 7 30.10 1019 10 16 0.00 0.00
10:55 pm 22:55 Clear 75 24 66 18.8 73 73 SSW 6 9 30.09 1019 10 16 0.00 0.00
11:15 pm 23:15 Clear 74 23.2 65 18.5 75 75 S 3 6 30.09 1019 10 16 0.00 0.00
11:35 pm 23:35 Clear 69 20.7 65 18.2 86 86 Calm 30.09 1019 10 16 0.00 0.00
11:55 pm 23:55 Clear 69 20.5 65 18.1 86 86 Calm 30.09 1019 10 16 0.00 0.00

Powered by AerisWeather